N2NET Weather Reports


Display with metric or nautical units.
time (UTC)temp
F
wind
direction
speed
MPH
gust
MPH
rain 1hr
in
rain 24hr
in
rain mn
in
humidity
%
barometer
mb
20260906093102 52 0 0.0 1.0 0.00 0.00 0.00 100 1014.3
20260906091604 52 0 0.0 0.0 0.00 0.00 0.00 100 1014.2
20260906090118 52 0 0.0 0.0 0.00 0.00 0.00 100 1014.0
20260906084610 52 0 0.0 0.0 0.00 0.00 0.00 100 1013.9
20260906083111 52 0 0.0 0.0 0.00 0.00 0.00 100 1013.7
20260906081601 53 0 0.0 1.0 0.00 0.00 0.00 100 1013.5
20260906080127 53 0 0.0 2.0 0.00 0.00 0.00 100 1013.8
20260906074610 54 307 0.0 0.0 0.00 0.00 0.00 100 1013.7
20260906073115 54 0 0.0 0.0 0.00 0.00 0.00 100 1013.7
20260906071603 55 0 1.0 3.0 0.00 0.00 0.00 100 1013.8
20260906070106 55 0 0.0 3.0 0.00 0.00 0.00 100 1013.7
20260906064558 56 0 0.0 0.0 0.00 0.00 0.00 100 1013.7
20260906063058 57 0 0.0 0.0 0.00 0.00 0.00 100 1013.7
20260906061607 57 0 0.0 2.0 0.00 0.00 0.00 100 1013.7
20260906054557 58 0 0.0 0.0 0.00 0.00 0.00 100 1014.1
20260906053101 58 0 0.0 0.0 0.00 0.00 0.00 100 1014.1
20260906051604 58 0 0.0 1.0 0.00 0.00 0.00 100 1014.2
20260906050112 58 225 0.0 1.0 0.00 0.00 0.00 100 1014.1
20260906044602 58 0 0.0 1.0 0.00 0.00 0.00 100 1014.1
20260906043103 58 0 0.0 1.0 0.00 0.00 0.00 100 1014.1
20260906041605 57 0 0.0 0.0 0.00 0.00 0.00 100 1014.1
20260906040105 57 0 0.0 0.0 0.00 0.00 0.00 100 1014.2
20260906034638 58 0 0.0 0.0 0.00 0.00 0.00 100 1014.2
20260906033102 58 0 0.0 0.0 0.00 0.00 0.00 100 1014.1
20260906031605 58 0 0.0 0.0 0.00 0.00 0.00 100 1013.9
20260906030105 59 0 0.0 0.0 0.00 0.00 0.00 100 1013.8
20260906024601 59 0 0.0 0.0 0.00 0.00 0.00 100 1013.9
20260906023105 59 0 0.0 0.0 0.00 0.00 0.00 100 1013.8
20260906021611 59 0 0.0 0.0 0.00 0.00 0.00 100 1013.8
20260906020107 59 0 0.0 0.0 0.00 0.00 0.00 100 1013.8
20260906014556 59 0 0.0 0.0 0.00 0.00 0.00 100 1013.6
20260906013106 59 0 0.0 0.0 0.00 0.00 0.00 100 1013.5
20260906011604 60 0 0.0 0.0 0.00 0.00 0.00 100 1013.4
20260906010105 60 0 0.0 0.0 0.00 0.00 0.00 100 1013.4
20260906004559 61 0 0.0 3.0 0.00 0.00 0.00 100 1013.4
20260906003101 61 0 0.0 0.0 0.00 0.00 0.00 100 1013.2
20260906001604 62 0 0.0 0.0 0.00 0.00 0.00 100 1013.0
20260906000109 63 0 0.0 0.0 0.00 0.00 0.00 100 1013.0
20260905234621 63 0 0.0 0.0 0.00 0.00 0.00 21 1013.0
20260905233105 64 0 0.0 0.0 0.00 0.00 0.00 44 1013.0
20260905231607 65 0 0.0 3.0 0.00 0.00 0.00 58 1012.9
20260905230110 65 0 0.0 0.0 0.00 0.00 0.00 65 1012.7
20260905224621 66 0 0.0 0.0 0.00 0.00 0.00 68 1012.7
20260905223107 66 0 0.0 0.0 0.00 0.00 0.00 72 1012.7
20260905221605 67 209 0.0 3.0 0.00 0.00 0.00 74 1012.6
20260905220118 68 0 0.0 6.0 0.00 0.00 0.00 70 1012.7
20260905214609 69 143 3.0 10.0 0.00 0.00 0.00 69 1012.7
20260905213105 69 17 2.0 9.0 0.00 0.00 0.00 69 1012.2
20260905211559 70 0 0.0 0.0 0.00 0.00 0.00 72 1012.0
20260905210109 70 0 0.0 1.0 0.00 0.00 0.00 69 1011.9
20260905204600 71 0 2.0 8.0 0.00 0.00 0.00 66 1011.9
20260905203114 71 307 4.0 9.0 0.00 0.00 0.00 64 1011.5
20260905201559 71 75 1.0 7.0 0.00 0.00 0.00 65 1011.5
20260905200108 71 336 0.0 2.0 0.00 0.00 0.00 68 1011.7
20260905194600 71 0 0.0 0.0 0.00 0.00 0.00 71 1011.6
20260905193103 71 0 0.0 4.0 0.00 0.00 0.00 70 1011.6
20260905191609 72 120 3.0 7.0 0.00 0.00 0.00 64 1011.5
20260905190103 74 0 0.0 4.0 0.00 0.00 0.00 62 1011.4
20260905184611 74 113 1.0 3.0 0.00 0.00 0.00 60 1011.3
20260905183102 72 0 0.0 0.0 0.00 0.00 0.00 68 1011.5
20260905181612 73 0 0.0 1.0 0.00 0.00 0.00 64 1011.6
20260905180105 74 0 0.0 5.0 0.00 0.00 0.00 61 1011.6
20260905174604 74 94 2.0 4.0 0.00 0.00 0.00 62 1011.5
20260905173106 72 0 0.0 3.0 0.00 0.00 0.00 66 1011.7
20260905171636 72 0 0.0 2.0 0.00 0.00 0.00 64 1011.7
20260905170106 70 149 0.0 4.0 0.00 0.00 0.00 66 1011.9
20260905164602 71 305 0.0 4.0 0.00 0.00 0.00 63 1011.8
20260905163105 72 0 0.0 1.0 0.00 0.00 0.00 62 1011.9
20260905161602 72 0 0.0 1.0 0.00 0.00 0.00 65 1011.7
20260905160109 71 217 0.0 3.0 0.00 0.00 0.00 65 1011.8
20260905154648 71 0 0.0 2.0 0.00 0.00 0.00 63 1011.7
20260905153104 71 0 1.0 4.0 0.00 0.00 0.00 63 1011.8
20260905151605 71 332 3.0 5.0 0.00 0.00 0.00 62 1012.1
20260905150108 70 337 0.0 5.0 0.00 0.00 0.00 64 1012.1
20260905144557 70 0 0.0 6.0 0.00 0.00 0.00 66 1012.0
20260905143107 71 155 0.0 10.0 0.00 0.00 0.00 66 1012.0
20260905141604 69 0 1.0 4.0 0.00 0.00 0.00 69 1011.9
20260905140109 67 322 2.0 9.0 0.00 0.00 0.00 68 1011.8
20260905134608 66 288 3.0 8.0 0.00 0.00 0.00 69 1011.8
20260905133103 66 217 2.0 7.0 0.00 0.00 0.00 70 1011.9
20260905131602 65 0 0.0 3.0 0.00 0.00 0.00 68 1012.0
20260905130059 66 67 0.0 3.0 0.00 0.00 0.00 69 1012.1
20260905124604 66 52 0.0 1.0 0.00 0.00 0.00 68 1012.3
20260905123104 66 319 1.0 8.0 0.00 0.00 0.00 66 1012.2
20260905121608 65 0 0.0 4.0 0.00 0.00 0.00 11 1012.3
20260905120105 62 0 0.0 8.0 0.00 0.00 0.00 100 1012.2
20260905114609 58 210 0.0 0.0 0.00 0.00 0.00 100 1012.0
20260905113104 57 0 0.0 0.0 0.00 0.00 0.00 100 1012.0
20260905111631 56 0 0.0 0.0 0.00 0.00 0.00 100 1011.7
20260905110112 56 0 0.0 0.0 0.00 0.00 0.00 100 1011.5
20260905104619 56 0 0.0 0.0 0.00 0.01 0.00 100 1011.3
20260905103104 55 0 0.0 0.0 0.00 0.01 0.00 100 1011.1
20260905101604 55 0 0.0 1.0 0.00 0.01 0.00 100 1011.1
20260905100104 56 0 0.0 2.0 0.00 0.01 0.00 100 1011.0
20260905094716 56 210 0.0 0.0 0.00 0.01 0.00 100 1011.2